Tiempo cada hora Cave Spring

Hoy, 27 Enero, Miércoles

Tiempo Temperatura Precipitaciones Viento Presión Humedad
00:00 +8°C° 0 mm 1 mps 727 mmHg 90%
01:00 +8°C° 0 mm 1 mps 727 mmHg 90%
02:00 +7°C° 0 mm 1 mps 728 mmHg 90%
03:00 +5°C° 0 mm 2 mps 728 mmHg 90%
04:00 +4°C° 0 mm 2 mps 728 mmHg 90%
05:00 +4°C° 0 mm 2 mps 729 mmHg 88%
06:00 +4°C° 0 mm 2 mps 729 mmHg 87%
07:00 +4°C° 0 mm 2 mps 730 mmHg 85%
08:00 +4°C° 0 mm 2 mps 730 mmHg 80%
09:00 +5°C° 0 mm 2 mps 731 mmHg 75%
10:00 +5°C° 0 mm 2 mps 731 mmHg 71%
11:00 +7°C° 0 mm 2 mps 731 mmHg 66%
12:00 +9°C° 0 mm 1 mps 730 mmHg 62%
13:00 +10°C° 0 mm 1 mps 730 mmHg 57%
14:00 +10°C° 0 mm 1 mps 729 mmHg 59%
15:00 +9°C° 0 mm 1 mps 729 mmHg 61%
16:00 +8°C° 0 mm 2 mps 728 mmHg 64%
17:00 +7°C° 0 mm 2 mps 728 mmHg 68%
18:00 +6°C° 0 mm 2 mps 728 mmHg 73%
19:00 +5°C° 0 mm 2 mps 729 mmHg 78%
20:00 +4°C° 1.3 mm 2 mps 728 mmHg 84%
21:00 +3°C° 1.3 mm 2 mps 728 mmHg 91%
22:00 +2°C° 1.3 mm 2 mps 727 mmHg 97%
23:00 +1°C° 3.4 mm 2 mps 728 mmHg 98%

Mañana, 28 Enero, Jueves

Tiempo Temperatura Precipitaciones Viento Presión Humedad
00:00 +1°C° 3.4 mm 2 mps 728 mmHg 98%
01:00 -1°C° 3.4 mm 2 mps 728 mmHg 98%
02:00 -1°C° 1.6 mm 2 mps 729 mmHg 97%
03:00 -2°C° 1.6 mm 2 mps 730 mmHg 97%
04:00 -2°C° 1.6 mm 2 mps 730 mmHg 96%
05:00 -4°C° 0.1 mm 3 mps 731 mmHg 92%
06:00 -5°C° 0.1 mm 4 mps 732 mmHg 89%
07:00 -7°C° 0.1 mm 5 mps 733 mmHg 85%
08:00 -7°C° 0 mm 5 mps 734 mmHg 83%
09:00 -6°C° 0 mm 6 mps 734 mmHg 81%
10:00 -6°C° 0 mm 6 mps 735 mmHg 79%
11:00 -6°C° 0 mm 7 mps 735 mmHg 77%
12:00 -6°C° 0 mm 7 mps 736 mmHg 76%
13:00 -4°C° 0 mm 7 mps 736 mmHg 74%
14:00 -4°C° 0 mm 6 mps 736 mmHg 74%
15:00 -4°C° 0 mm 6 mps 735 mmHg 74%
16:00 -4°C° 0 mm 6 mps 735 mmHg 74%
17:00 -6°C° 0 mm 5 mps 736 mmHg 77%
18:00 -7°C° 0 mm 4 mps 736 mmHg 79%
19:00 -8°C° 0 mm 4 mps 737 mmHg 82%
20:00 -8°C° 0 mm 3 mps 737 mmHg 82%
21:00 -9°C° 0 mm 3 mps 737 mmHg 82%
22:00 -9°C° 0 mm 3 mps 737 mmHg 82%
23:00 -9°C° 0 mm 2 mps 737 mmHg 82%

Pasado mañana, 29 Enero, Viernes

Tiempo Temperatura Precipitaciones Viento Presión Humedad
00:00 -9°C° 0 mm 2 mps 737 mmHg 82%
01:00 -10°C° 0 mm 2 mps 737 mmHg 82%
02:00 -10°C° 0 mm 2 mps 737 mmHg 82%
03:00 -10°C° 0 mm 2 mps 737 mmHg 83%
04:00 -10°C° 0 mm 2 mps 736 mmHg 83%
05:00 -12°C° 0 mm 2 mps 737 mmHg 84%
06:00 -12°C° 0 mm 2 mps 737 mmHg 84%
07:00 -12°C° 0 mm 2 mps 737 mmHg 85%
08:00 -9°C° 0 mm 2 mps 737 mmHg 79%
09:00 -9°C° 0 mm 3 mps 737 mmHg 74%
10:00 -7°C° 0 mm 3 mps 737 mmHg 68%
11:00 -5°C° 0 mm 3 mps 737 mmHg 66%
12:00 -4°C° 0 mm 3 mps 737 mmHg 64%
13:00 -3°C° 0 mm 4 mps 737 mmHg 62%
14:00 -2°C° 0 mm 4 mps 736 mmHg 63%
15:00 -2°C° 0 mm 4 mps 736 mmHg 65%
16:00 -1°C° 0 mm 3 mps 736 mmHg 66%
17:00 -4°C° 0 mm 3 mps 736 mmHg 72%
18:00 -4°C° 0 mm 2 mps 736 mmHg 77%
19:00 -6°C° 0 mm 2 mps 737 mmHg 82%
20:00 -6°C° 0 mm 2 mps 737 mmHg 83%
21:00 -7°C° 0 mm 2 mps 737 mmHg 84%
22:00 -6°C° 0 mm 1 mps 737 mmHg 85%
23:00 -7°C° 0 mm 1 mps 737 mmHg 85%

30 Enero, Sábado

Tiempo Temperatura Precipitaciones Viento Presión Humedad
00:00 -7°C° 0 mm 1 mps 737 mmHg 86%
01:00 -7°C° 0 mm 1 mps 737 mmHg 86%
02:00 -8°C° 0 mm 1 mps 736 mmHg 86%
03:00 -8°C° 0 mm 1 mps 736 mmHg 86%
04:00 -8°C° 0 mm 0 mps 736 mmHg 85%
05:00 -8°C° 0 mm 0 mps 736 mmHg 85%
06:00 -8°C° 0 mm 0 mps 736 mmHg 86%
07:00 -8°C° 0 mm 0 mps 736 mmHg 86%
08:00 -6°C° 0 mm 1 mps 736 mmHg 82%
09:00 -3°C° 0 mm 1 mps 736 mmHg 78%
10:00 -1°C° 0 mm 1 mps 736 mmHg 75%
11:00 0°C° 0 mm 1 mps 735 mmHg 76%
12:00 +1°C° 0 mm 1 mps 735 mmHg 78%
13:00 +2°C° 0 mm 1 mps 734 mmHg 80%
14:00 +3°C° 0 mm 1 mps 734 mmHg 83%
15:00 +3°C° 0 mm 1 mps 733 mmHg 85%
16:00 +3°C° 0 mm 1 mps 732 mmHg 88%
17:00 +2°C° 0 mm 1 mps 733 mmHg 90%
18:00 +1°C° 0 mm 1 mps 733 mmHg 93%
19:00 -1°C° 0 mm 0 mps 733 mmHg 95%
20:00 -1°C° 0.3 mm 0 mps 733 mmHg 96%
21:00 -1°C° 0.3 mm 0 mps 733 mmHg 97%
22:00 0°C° 0.3 mm 0 mps 732 mmHg 98%
23:00 +1°C° 0.3 mm 1 mps 732 mmHg 98%

31 Enero, Domingo

Tiempo Temperatura Precipitaciones Viento Presión Humedad
00:00 +1°C° 0.3 mm 1 mps 731 mmHg 99%
01:00 +1°C° 0.3 mm 1 mps 730 mmHg 99%
02:00 +1°C° 2.8 mm 1 mps 729 mmHg 99%
03:00 +1°C° 2.8 mm 1 mps 728 mmHg 99%
04:00 +1°C° 2.8 mm 1 mps 727 mmHg 99%
05:00 +1°C° 4 mm 1 mps 727 mmHg 99%
06:00 +1°C° 4 mm 1 mps 727 mmHg 99%
07:00 +1°C° 4 mm 1 mps 727 mmHg 99%
08:00 +2°C° 0.9 mm 1 mps 726 mmHg 99%
09:00 +2°C° 0.9 mm 1 mps 726 mmHg 99%
10:00 +2°C° 0.9 mm 1 mps 726 mmHg 99%
11:00 +3°C° 0.1 mm 1 mps 725 mmHg 99%
12:00 +3°C° 0.1 mm 1 mps 724 mmHg 99%
13:00 +3°C° 0.1 mm 1 mps 723 mmHg 99%
14:00 +4°C° 0 mm 1 mps 723 mmHg 99%
15:00 +4°C° 0 mm 1 mps 722 mmHg 99%
16:00 +4°C° 0 mm 1 mps 722 mmHg 99%
17:00 +3°C° 0.3 mm 0 mps 722 mmHg 99%
18:00 +3°C° 0.3 mm 0 mps 722 mmHg 99%
19:00 +3°C° 0.3 mm 0 mps 722 mmHg 99%
20:00 +3°C° 0.1 mm 0 mps 722 mmHg 99%
21:00 +3°C° 0.1 mm 0 mps 722 mmHg 99%
22:00 +4°C° 0.1 mm 1 mps 722 mmHg 99%
23:00 +4°C° 0 mm 1 mps 722 mmHg 99%

1 Febrero, Lunes

Tiempo Temperatura Precipitaciones Viento Presión Humedad
00:00 +4°C° 0 mm 1 mps 721 mmHg 99%
01:00 +4°C° 0 mm 1 mps 721 mmHg 99%
02:00 +4°C° 0 mm 1 mps 721 mmHg 99%
03:00 +3°C° 0 mm 2 mps 721 mmHg 99%
04:00 +2°C° 0 mm 2 mps 721 mmHg 98%
05:00 +2°C° 0 mm 2 mps 721 mmHg 98%
06:00 +2°C° 0 mm 2 mps 721 mmHg 99%
07:00 +2°C° 0 mm 2 mps 721 mmHg 99%
08:00 +2°C° 0 mm 3 mps 721 mmHg 98%
09:00 +2°C° 0 mm 3 mps 722 mmHg 98%
10:00 +1°C° 0 mm 4 mps 722 mmHg 98%
11:00 +1°C° 0 mm 4 mps 722 mmHg 96%
12:00 +1°C° 0 mm 5 mps 722 mmHg 95%
13:00 +1°C° 0 mm 5 mps 722 mmHg 93%
14:00 +1°C° 0 mm 5 mps 722 mmHg 91%
15:00 0°C° 0 mm 5 mps 722 mmHg 89%
16:00 0°C° 0 mm 5 mps 722 mmHg 87%
17:00 -1°C° 0 mm 5 mps 722 mmHg 87%
18:00 -2°C° 0 mm 5 mps 722 mmHg 87%
19:00 -2°C° 0 mm 5 mps 722 mmHg 87%
20:00 -4°C° 0 mm 5 mps 722 mmHg 87%
21:00 -4°C° 0 mm 5 mps 723 mmHg 87%
22:00 -4°C° 0 mm 5 mps 723 mmHg 86%
23:00 -5°C° 0 mm 5 mps 722 mmHg 86%
Mostrar más